• In Hungary
  • List of Countries
  • For 7 days
  • Water Temperature
  • Satellite Maps
  • Weather Map
  • News
  • Weather Widgets
  • user-avatar
    Login

    Hourly Weather Morkiyaly

    Today, 24 October, Wednesday

    Time Temperature Precipitation Wind Pressure Humidity
    00:00 +6°C° 0 mm 4 mps 742 mmHg 90%
    01:00 +5°C° 0 mm 3 mps 742 mmHg 92%
    02:00 +5°C° 0 mm 3 mps 742 mmHg 93%
    03:00 +5°C° 0 mm 2 mps 741 mmHg 95%
    04:00 +5°C° 0 mm 2 mps 741 mmHg 95%
    05:00 +3°C° 0 mm 3 mps 741 mmHg 95%
    06:00 +3°C° 0 mm 3 mps 741 mmHg 95%
    07:00 +4°C° 0 mm 3 mps 741 mmHg 90%
    08:00 +5°C° 0 mm 4 mps 741 mmHg 85%
    09:00 +5°C° 0 mm 5 mps 741 mmHg 81%
    10:00 +6°C° 0 mm 5 mps 741 mmHg 76%
    11:00 +7°C° 0 mm 5 mps 741 mmHg 72%
    12:00 +8°C° 0 mm 5 mps 741 mmHg 68%
    13:00 +8°C° 0 mm 5 mps 740 mmHg 69%
    14:00 +8°C° 0 mm 4 mps 740 mmHg 70%
    15:00 +8°C° 0 mm 4 mps 740 mmHg 70%
    16:00 +7°C° 0 mm 4 mps 740 mmHg 73%
    17:00 +6°C° 0 mm 4 mps 740 mmHg 77%
    18:00 +6°C° 0 mm 4 mps 740 mmHg 80%
    19:00 +6°C° 0 mm 4 mps 740 mmHg 80%
    20:00 +6°C° 0 mm 4 mps 740 mmHg 80%
    21:00 +6°C° 0 mm 5 mps 739 mmHg 80%
    22:00 +6°C° 0 mm 5 mps 739 mmHg 80%
    23:00 +5°C° 0 mm 6 mps 738 mmHg 80%

    Tomorrow, 25 October, Thursday

    Time Temperature Precipitation Wind Pressure Humidity
    00:00 +5°C° 0 mm 6 mps 738 mmHg 80%
    01:00 +5°C° 0.1 mm 7 mps 737 mmHg 80%
    02:00 +5°C° 0.1 mm 7 mps 737 mmHg 81%
    03:00 +6°C° 0.1 mm 8 mps 736 mmHg 81%
    04:00 +6°C° 0.6 mm 8 mps 736 mmHg 83%
    05:00 +6°C° 0.6 mm 8 mps 735 mmHg 85%
    06:00 +6°C° 0.6 mm 9 mps 735 mmHg 86%
    07:00 +7°C° 1.1 mm 8 mps 735 mmHg 87%
    08:00 +8°C° 1.1 mm 7 mps 735 mmHg 88%
    09:00 +8°C° 1.1 mm 7 mps 735 mmHg 89%
    10:00 +8°C° 0.5 mm 6 mps 735 mmHg 89%
    11:00 +8°C° 0.5 mm 5 mps 735 mmHg 89%
    12:00 +9°C° 0.5 mm 5 mps 735 mmHg 89%
    13:00 +8°C° 0.5 mm 4 mps 735 mmHg 91%
    14:00 +9°C° 0.5 mm 3 mps 734 mmHg 93%
    15:00 +9°C° 0.5 mm 2 mps 734 mmHg 95%
    16:00 +9°C° 0.6 mm 2 mps 734 mmHg 96%
    17:00 +9°C° 0.6 mm 2 mps 734 mmHg 96%
    18:00 +9°C° 0.6 mm 2 mps 734 mmHg 97%
    19:00 +9°C° 0.3 mm 3 mps 733 mmHg 96%
    20:00 +9°C° 0.3 mm 3 mps 733 mmHg 96%
    21:00 +10°C° 0.3 mm 4 mps 732 mmHg 96%
    22:00 +9°C° 0.5 mm 5 mps 732 mmHg 94%
    23:00 +9°C° 0.5 mm 5 mps 731 mmHg 93%

    Day after tomorrow, 26 October, Friday

    Time Temperature Precipitation Wind Pressure Humidity
    00:00 +9°C° 0.5 mm 6 mps 731 mmHg 91%
    01:00 +8°C° 0.3 mm 6 mps 731 mmHg 88%
    02:00 +7°C° 0.3 mm 6 mps 731 mmHg 85%
    03:00 +7°C° 0.3 mm 6 mps 732 mmHg 81%
    04:00 +5°C° 0 mm 6 mps 732 mmHg 81%
    05:00 +5°C° 0 mm 5 mps 733 mmHg 80%
    06:00 +5°C° 0 mm 5 mps 733 mmHg 80%
    07:00 +5°C° 0 mm 5 mps 734 mmHg 78%
    08:00 +4°C° 0 mm 6 mps 734 mmHg 77%
    09:00 +4°C° 0 mm 6 mps 735 mmHg 75%
    10:00 +4°C° 0.1 mm 6 mps 735 mmHg 74%
    11:00 +4°C° 0.1 mm 6 mps 736 mmHg 74%
    12:00 +5°C° 0.1 mm 6 mps 737 mmHg 73%
    13:00 +4°C° 0.1 mm 6 mps 737 mmHg 72%
    14:00 +4°C° 0.1 mm 6 mps 738 mmHg 72%
    15:00 +5°C° 0.1 mm 5 mps 738 mmHg 71%
    16:00 +3°C° 0 mm 5 mps 739 mmHg 74%
    17:00 +3°C° 0 mm 4 mps 740 mmHg 76%
    18:00 +3°C° 0 mm 3 mps 740 mmHg 79%
    19:00 +2°C° 0 mm 3 mps 741 mmHg 81%
    20:00 +1°C° 0 mm 3 mps 741 mmHg 84%
    21:00 +1°C° 0 mm 3 mps 742 mmHg 86%
    22:00 +1°C° 0 mm 3 mps 742 mmHg 87%
    23:00 0°C° 0 mm 3 mps 742 mmHg 88%

    27 October, Saturday

    Time Temperature Precipitation Wind Pressure Humidity
    00:00 0°C° 0 mm 3 mps 743 mmHg 88%
    01:00 0°C° 0 mm 3 mps 743 mmHg 89%
    02:00 0°C° 0 mm 3 mps 743 mmHg 89%
    03:00 -1°C° 0 mm 3 mps 743 mmHg 89%
    04:00 -2°C° 0 mm 4 mps 743 mmHg 88%
    05:00 -2°C° 0 mm 4 mps 743 mmHg 87%
    06:00 -2°C° 0 mm 4 mps 743 mmHg 87%
    07:00 -1°C° 0 mm 5 mps 744 mmHg 83%
    08:00 0°C° 0 mm 5 mps 744 mmHg 79%
    09:00 +1°C° 0 mm 6 mps 744 mmHg 75%
    10:00 +1°C° 0 mm 6 mps 744 mmHg 74%
    11:00 +2°C° 0 mm 6 mps 745 mmHg 74%
    12:00 +2°C° 0 mm 6 mps 745 mmHg 73%
    13:00 +2°C° 0 mm 6 mps 745 mmHg 73%
    14:00 +3°C° 0 mm 5 mps 745 mmHg 72%
    15:00 +3°C° 0 mm 5 mps 745 mmHg 72%
    16:00 +3°C° 0 mm 4 mps 745 mmHg 74%
    17:00 +3°C° 0 mm 4 mps 745 mmHg 76%
    18:00 +3°C° 0 mm 4 mps 745 mmHg 78%
    19:00 +3°C° 0.1 mm 4 mps 745 mmHg 79%
    20:00 +2°C° 0.1 mm 5 mps 744 mmHg 81%
    21:00 +2°C° 0.1 mm 5 mps 744 mmHg 82%
    22:00 +2°C° 1.3 mm 6 mps 742 mmHg 83%
    23:00 +2°C° 1.3 mm 6 mps 741 mmHg 83%

    28 October, Sunday

    Time Temperature Precipitation Wind Pressure Humidity
    00:00 +2°C° 1.3 mm 7 mps 740 mmHg 84%
    01:00 +3°C° 1.3 mm 7 mps 739 mmHg 85%
    02:00 +4°C° 1.3 mm 7 mps 738 mmHg 86%
    03:00 +4°C° 1.3 mm 7 mps 737 mmHg 86%
    04:00 +4°C° 0.2 mm 7 mps 737 mmHg 85%
    05:00 +4°C° 0.2 mm 7 mps 737 mmHg 83%
    06:00 +3°C° 0.2 mm 7 mps 737 mmHg 82%
    07:00 +3°C° 0.1 mm 7 mps 737 mmHg 81%
    08:00 +4°C° 0.1 mm 8 mps 738 mmHg 80%
    09:00 +4°C° 0.1 mm 8 mps 738 mmHg 79%
    10:00 +4°C° 0.3 mm 8 mps 740 mmHg 79%
    11:00 +4°C° 0.3 mm 8 mps 741 mmHg 80%
    12:00 +4°C° 0.3 mm 7 mps 742 mmHg 81%
    13:00 +4°C° 0.2 mm 7 mps 743 mmHg 81%
    14:00 +3°C° 0.2 mm 7 mps 744 mmHg 81%
    15:00 +3°C° 0.2 mm 7 mps 746 mmHg 81%
    16:00 +2°C° 0.2 mm 6 mps 747 mmHg 81%
    17:00 +2°C° 0.2 mm 6 mps 749 mmHg 80%
    18:00 +1°C° 0.2 mm 6 mps 750 mmHg 80%
    19:00 +1°C° 0.1 mm 6 mps 751 mmHg 80%
    20:00 +1°C° 0.1 mm 5 mps 752 mmHg 81%
    21:00 0°C° 0.1 mm 5 mps 753 mmHg 82%
    22:00 0°C° 0 mm 4 mps 754 mmHg 83%
    23:00 0°C° 0 mm 4 mps 755 mmHg 84%

    29 October, Monday

    Time Temperature Precipitation Wind Pressure Humidity
    00:00 -1°C° 0 mm 4 mps 755 mmHg 85%
    01:00 0°C° 0 mm 3 mps 756 mmHg 86%
    02:00 -1°C° 0 mm 3 mps 757 mmHg 88%
    03:00 -1°C° 0 mm 2 mps 757 mmHg 89%
    04:00 -1°C° 0 mm 2 mps 758 mmHg 89%
    05:00 -1°C° 0 mm 2 mps 758 mmHg 89%
    06:00 -1°C° 0 mm 2 mps 759 mmHg 88%
    07:00 -1°C° 0 mm 2 mps 759 mmHg 86%
    08:00 +1°C° 0 mm 2 mps 760 mmHg 83%
    09:00 +1°C° 0 mm 2 mps 760 mmHg 81%
    10:00 +2°C° 0 mm 2 mps 760 mmHg 78%
    11:00 +2°C° 0 mm 2 mps 760 mmHg 76%
    12:00 +3°C° 0 mm 2 mps 761 mmHg 73%
    13:00 +2°C° 0 mm 3 mps 761 mmHg 74%
    14:00 +2°C° 0 mm 3 mps 761 mmHg 74%
    15:00 +2°C° 0 mm 3 mps 761 mmHg 74%
    16:00 +2°C° 0 mm 2 mps 761 mmHg 78%
    17:00 +1°C° 0 mm 2 mps 761 mmHg 81%
    18:00 +1°C° 0 mm 2 mps 761 mmHg 85%
    19:00 -1°C° 0 mm 2 mps 761 mmHg 86%
    20:00 -1°C° 0 mm 2 mps 762 mmHg 87%
    21:00 -1°C° 0 mm 2 mps 762 mmHg 88%
    22:00 -1°C° 0 mm 2 mps 762 mmHg 89%
    23:00 -1°C° 0 mm 3 mps 763 mmHg 89%

    30 October, Tuesday

    Time Temperature Precipitation Wind Pressure Humidity
    00:00 -2°C° 0 mm 3 mps 763 mmHg 90%
    01:00 -2°C° 0 mm 3 mps 764 mmHg 88%
    02:00 -4°C° 0 mm 3 mps 764 mmHg 86%
    03:00 -4°C° 0 mm 3 mps 765 mmHg 84%
    04:00 -4°C° 0 mm 3 mps 765 mmHg 83%
    05:00 -4°C° 0 mm 2 mps 766 mmHg 83%
    06:00 -4°C° 0 mm 2 mps 766 mmHg 82%
    07:00 -3°C° 0 mm 2 mps 767 mmHg 79%
    08:00 -4°C° 0 mm 3 mps 767 mmHg 77%
    09:00 -2°C° 0 mm 3 mps 768 mmHg 75%
    10:00 -1°C° 0 mm 3 mps 768 mmHg 71%
    11:00 -1°C° 0 mm 3 mps 768 mmHg 68%
    12:00 0°C° 0 mm 3 mps 769 mmHg 65%
    13:00 0°C° 0 mm 3 mps 769 mmHg 64%
    14:00 0°C° 0 mm 3 mps 769 mmHg 64%
    15:00 0°C° 0 mm 3 mps 769 mmHg 64%
    16:00 -1°C° 0 mm 3 mps 769 mmHg 66%
    17:00 -1°C° 0 mm 3 mps 770 mmHg 67%
    18:00 -1°C° 0 mm 3 mps 770 mmHg 69%
    19:00 -1°C° 0 mm 3 mps 770 mmHg 69%
    20:00 -1°C° 0 mm 3 mps 771 mmHg 68%
    21:00 -2°C° 0 mm 3 mps 771 mmHg 68%
    22:00 -2°C° 0 mm 3 mps 771 mmHg 69%
    23:00 -2°C° 0 mm 3 mps 772 mmHg 70%
    Show more